Regional Weather Roundup
Issued by NWS

Home | Current Version | Previous Version | Graphics & Text | Print | Product List | Glossary On
Versions: 1 2 3 4 5 6 7 8 9 10 11 12 13 14 15 16 17 18 19 20 21 22 23 24 25 26 27 28 29 30 31 32 33 34 35 36 37 38 39 40 41 42 43 44 45 46 47 48 49 50
000
ASUS45 KABQ 291910
RWRNM
NEW MEXICO REGIONAL WEATHER ROUNDUP
NATIONAL WEATHER SERVICE ALBUQUERQUE NM
100 PM MDT FRI JUL 29 2016

NOTE: "FAIR" MEANS FEW OR NO CLOUDS BELOW 12,000 FEET AGL WITH NO
       SIGNIFICANT WEATHER OR OBSTRUCTIONS TO VISION.

      THIS PRODUCT IS RELEASED AS TWO VERSIONS.  ONE VERSION NEAR
      THE TOP OF THE HOUR CONTAINING PRELIMINARY DATA FROM ALBUQUERQUE
      AND OTHER STATIONS.  A FINAL VERSION WITH ADDITIONAL DATA IS
      ISSUED ABOUT 10 MINUTES AFTER THE HOUR.

NMZ501-503-504-510>518-292000-
NORTHWEST PLATEAU/NORTHCENTRAL MOUNTAINS

CITY           SKY/WX    TMP DP  RH WIND       PRES   REMARKS
FARMINGTON     FAIR      94  37  13 VRB5      30.11F
LOS ALAMOS     LGT RAIN  77  44  29 SW12G18   30.31R
SANTA FE       FAIR      88  47  24 S22G35    30.22
TAOS           FAIR      86  39  19 SW7G17    30.26F
ANGEL FIRE     FAIR      79  40  24 SW20      30.34F

$$
NMZ402-403-502-505>509-292000-
WESTCENTRAL MOUNTAINS/SOUTHWEST MOUNTAINS

CITY           SKY/WX    TMP DP  RH WIND       PRES   REMARKS
GALLUP         FAIR      93  38  14 W9G18     30.20F
GRANTS         FAIR      89  36  15 NW7       30.23F
SILVER CITY    FAIR      90  50  25 SE10G16   30.18F

$$
NMZ407-409-411-412-292000-
SOUTHERN DESERTS

CITY           SKY/WX    TMP DP  RH WIND       PRES   REMARKS
LORDSBURG      FAIR      95  54  24 S10G18    30.07F
DEMING         FAIR      94  52  24 SE10G20   30.09F
LAS CRUCES     FAIR      92  50  23 SE12G17   30.12F
HOLLOMAN AFB   FAIR      93  55  27 NW12      30.08F
ALAMOGORDO     FAIR      91  52  25 S6        30.11F
T OR C         FAIR      94  46  19 E15       30.12F

$$
NMZ519>523-292000-
CENTRAL VALLEYS/CENTRAL HIGHLANDS

CITY           SKY/WX    TMP DP  RH WIND       PRES   REMARKS
ALBUQUERQUE    FAIR      90  50  25 SW16G28   30.15F
DOUBLE EAGLE   MOSUNNY   90  52  27 S17G24    30.20F
MORIARTY ARPT  FAIR      85  43  22 S20G25    30.25F
CLINES CORNERS FAIR      82  44  26 SW21G32   30.31F
BELEN          FAIR      91  47  22 S18G26    30.15F
SOCORRO        FAIR      86  48  27 SE14G20   30.16F

$$
NMZ524>526-539-540-292000-
SOUTHCENTRAL MOUNTAINS

CITY           SKY/WX    TMP DP  RH WIND       PRES   REMARKS
RUIDOSO          N/A     75  37  25 N14G23    30.38S

$$
NMZ527>531-292000-
NORTHEAST HIGHLANDS/NORTHEAST PLAINS

CITY           SKY/WX    TMP DP  RH WIND       PRES   REMARKS
LAS VEGAS      FAIR      80  46  30 SW21G31   30.25F
RATON          FAIR      84  52  33 VRB6      30.19F
CLAYTON        FAIR      85  61  44 SE15G26   30.15F

$$
NMZ532>537-292000-
EASTCENTRAL PLAINS

CITY           SKY/WX    TMP DP  RH WIND       PRES   REMARKS
TUCUMCARI      FAIR      92  53  26 SE17G28   30.07F
CANNON AFB     FAIR      90  58  33 SE10G23   30.14F
CLOVIS AIRPORT FAIR      90  61  37 SE20G25   30.15F

$$
NMZ028-029-538-292000-
SOUTHEAST PLAINS

CITY           SKY/WX    TMP DP  RH WIND       PRES   REMARKS
ROSWELL        FAIR      92  54  27 SE15      30.10F
ARTESIA        FAIR      91  57  31 SE12G18   30.10F
CARLSBAD       FAIR      93  57  29 VRB7G22   30.07F
HOBBS          PTSUNNY   90  55  31 E10G21    30.13F


$$




USA.gov is the U.S. government's official web portal to all federal, state and local government web resources and services.